Salem, OR

10:51 PM PDT on June 28, 2017 (GMT -0700)
McNary

Weather History for KSLE - November, 2011

Change the Weather History Date:

Thursday, November 3, 2011

  Actual Average Record
Temperature  
Mean Temperature 47 °F 48 °F  
Max Temperature 54 °F 56 °F 74 °F (2010)
Min Temperature 39 °F 40 °F 12 °F (1935)
Degree Days  
Heating Degree Days 18 17  
Month to date heating degree days 65 49  
Since 1 July heating degree days 461 581  
Cooling Degree Days 0 0  
Month to date cooling degree days 0 0  
Year to date cooling degree days 316 290  
Moisture  
Dew Point 39 °F    
Average Humidity 75    
Maximum Humidity 96    
Minimum Humidity 54    
Precipitation  
Precipitation T in 0.17 in 1.14 in (1983)
Month to date precipitation 0.26 0.49  
Year to date precipitation 26.86 26.80  
Snow  
Snow 0.00 in - - ()
Month to date snowfall 0.0  
Snow Depth 0.00 in    
Sea Level Pressure  
Sea Level Pressure 29.87 in    
Wind  
Wind Speed 6 mph (South)    
Max Wind Speed 14 mph    
Max Gust Speed 17 mph    
Visibility 10 miles    
Events Rain    
T = Trace of Precipitation, MM = Missing Value Source: NWS Daily Summary

Daily Weather History Graph

Daily Weather History Graph

Search for Another Location

Airport or City:

Trip Planner

Search our weather history database for the weather conditions in past years. The results will help you decide how hot, cold, wet, or windy it might be!

Date:

Astronomy

Nov. 03, 2011 Rise Set
Actual Time 7:52 AM PDT 5:57 PM PDT
Civil Twilight 7:22 AM PDT 6:28 PM PDT
Nautical Twilight 6:47 AM PDT 7:03 PM PDT
Astronomical Twilight 6:13 AM PDT 7:37 PM PDT
Moon 2:39 PM PDT (11/3) 12:53 AM PDT (11/3)
Length of Visible Light 11h 06m
Length of Day
10h 04m
First Quarter, 61% of the Moon is Illuminated
Nov 3
First Quarter
Nov 10
Full
Nov 18
Last Quarter
Nov 24
New
Dec 2
First Quarter

Hourly Weather History & Observations

Time (PDT) Temp. Windchill Dew Point Humidity Pressure Visibility Wind Dir Wind Speed Gust Speed Precip Events Conditions
12:56 AM 46.0 °F 43.1 °F 43.0 °F 89% 29.92 in 10.0 mi South 5.8 mph - 0.02 in Rain Light Rain
1:56 AM 45.0 °F 42.6 °F 43.0 °F 93% 29.93 in 10.0 mi South 4.6 mph - 0.00 in   Overcast
2:56 AM 45.0 °F 42.6 °F 43.0 °F 93% 29.91 in 10.0 mi SSE 4.6 mph - 0.00 in Rain Light Rain
3:56 AM 45.0 °F 41.2 °F 43.0 °F 93% 29.91 in 10.0 mi SE 6.9 mph - 0.00 in   Clear
4:56 AM 43.0 °F 38.8 °F 41.0 °F 93% 29.90 in 10.0 mi SSE 6.9 mph - N/A   Scattered Clouds
5:56 AM 43.0 °F 38.2 °F 41.0 °F 93% 29.91 in 10.0 mi SSE 8.1 mph - N/A   Mostly Cloudy
6:56 AM 42.1 °F 39.2 °F 39.9 °F 92% 29.90 in 10.0 mi SSE 4.6 mph - N/A   Mostly Cloudy
7:56 AM 39.9 °F 35.8 °F 37.9 °F 93% 29.90 in 10.0 mi SSE 5.8 mph - N/A   Mostly Cloudy
8:56 AM 44.1 °F 41.5 °F 41.0 °F 89% 29.90 in 10.0 mi South 4.6 mph - N/A   Overcast
9:52 AM 46.4 °F 42.9 °F 41.0 °F 81% 29.90 in 10.0 mi South 6.9 mph - N/A   Scattered Clouds
9:56 AM 46.0 °F 42.5 °F 41.0 °F 83% 29.90 in 10.0 mi South 6.9 mph - N/A   Scattered Clouds
10:41 AM - - - N/A% 29.88 in 10.0 mi South 8.1 mph - N/A   Mostly Cloudy
11:43 AM 48.2 °F - 39.2 °F 71% 29.88 in - South 4.6 mph - N/A   Scattered Clouds
12:45 PM 50.0 °F - 41.0 °F 71% 29.86 in 10.0 mi ESE 5.8 mph - N/A   Overcast
12:56 PM 51.1 °F - 42.1 °F 71% 29.86 in 10.0 mi SSW 4.6 mph - N/A   Overcast
1:56 PM 52.0 °F - 42.1 °F 69% 29.84 in 10.0 mi SSE 4.6 mph - N/A   Overcast
2:56 PM 52.0 °F - 39.9 °F 63% 29.84 in 10.0 mi ESE 4.6 mph - N/A   Mostly Cloudy
3:56 PM 54.0 °F - 37.0 °F 53% 29.82 in 10.0 mi NNW 8.1 mph - N/A   Mostly Cloudy
4:56 PM 48.9 °F - 37.0 °F 64% 29.82 in 10.0 mi NW 5.8 mph - N/A   Mostly Cloudy
5:56 PM 46.9 °F - 37.9 °F 71% 29.83 in 10.0 mi NNW 4.6 mph - N/A   Partly Cloudy
6:56 PM 44.1 °F 41.5 °F 39.0 °F 82% 29.84 in 10.0 mi NW 4.6 mph - N/A   Clear
7:56 PM 43.0 °F 41.3 °F 39.9 °F 89% 29.84 in 10.0 mi NNW 3.5 mph - N/A   Clear
8:56 PM 39.0 °F - 36.0 °F 89% 29.85 in 10.0 mi Calm Calm - N/A   Clear
9:56 PM 37.9 °F - 35.1 °F 89% 29.86 in 10.0 mi Calm Calm - N/A   Scattered Clouds
10:16 PM 37.4 °F - 35.6 °F 93% 29.86 in 9.0 mi Calm Calm - N/A   Mostly Cloudy
10:56 PM 37.0 °F - 34.0 °F 89% 29.86 in 10.0 mi Calm Calm - N/A   Scattered Clouds
11:56 PM 37.0 °F - 34.0 °F 89% 29.87 in 7.0 mi Calm Calm - N/A   Mostly Cloudy